Theta_e
309 310 310 310 310 310 311 311 311 310 310 311 310 310 309 309 310 306 302 307 306 303 303 306 307 304 304 304 300 303 305 307 306 300 300 299 298 300 298 300 299 299 298 297 297 295 292 316 315 306 312 313 314 314
309 310 310 310 310 310 311 311 311 310 310 310 310 310 309 309 310 309 301 308 309 305 304 308 308 309 308 308 304 304 303 305 309 304 303 304 301 302 299 295 304 295 302 302 302 300 311 314 314 316 315 313 314 312
308 308 309 310 310 310 310 310 311 311 310 310 310 310 310 310 311 308 301 304 305 302 302 303 303 308 310 310 310 300 303 308 306 307 304 304 301 305 298 300 302 304 308 303 304 311 310 312 318 318 318 314 315 314
307 307 309 309 309 309 309 310 310 310 310 310 310 311 310 310 310 308 302 304 304 303 296 300 312 308 311 312 310 308 305 305 304 304 302 301 300 307 301 300 299 302 304 304 303 306 312 319 315 315 318 318 316 315
307 307 307 308 308 308 308 310 310 310 310 309 310 310 310 310 309 307 305 305 307 301 295 297 303 306 309 310 310 310 307 304 301 299 299 298 302 301 303 302 298 302 301 302 299 306 307 309 316 314 316 315 315 314
306 307 306 307 307 307 308 308 309 309 310 310 310 310 310 310 309 303 300 307 308 306 299 293 304 304 307 308 308 306 307 307 305 301 299 302 305 301 297 296 302 305 306 307 306 311 313 314 315 314 313 312 314 313
306 306 307 306 306 306 307 308 309 309 309 310 310 310 310 309 305 299 297 303 306 304 300 295 298 307 306 307 306 305 306 303 303 302 301 301 301 302 298 295 301 305 306 307 311 313 310 310 308 314 314 316 316 315
306 305 306 306 305 306 307 308 309 309 309 309 309 309 308 308 305 300 304 306 307 303 302 294 296 300 307 302 301 306 302 303 303 301 301 299 302 302 296 301 303 305 307 307 309 312 311 312 313 312 314 315 315 314
306 305 306 306 305 306 307 308 308 309 308 308 308 308 305 301 298 301 312 309 307 306 297 297 293 293 306 304 305 306 307 299 305 299 299 300 297 295 299 301 302 304 305 306 312 312 314 312 311 314 314 314 313 314
306 305 306 306 305 306 307 307 308 309 308 308 304 300 295 302 313 310 304 301 301 302 301 294 299 294 300 299 301 303 304 300 297 300 304 298 296 301 304 305 305 306 311 311 307 307 312 310 310 311 315 316 315 316
305 305 306 306 305 306 307 308 308 307 307 302 300 298 306 312 304 301 297 296 298 295 299 298 298 296 303 296 296 305 300 300 294 297 298 296 295 301 306 306 307 310 312 311 312 312 311 312 312 311 314 316 318 316
306 306 306 306 305 306 307 307 308 305 306 305 302 306 308 304 300 295 294 297 295 293 300 299 300 301 302 305 302 304 299 300 292 302 299 294 301 307 306 306 312 313 312 311 311 314 312 312 319 318 319 320 319 317
305 305 306 306 305 305 307 308 307 307 307 307 303 299 298 298 289 289 288 292 293 300 305 305 303 305 306 307 303 301 296 295 302 295 294 298 301 303 305 307 311 314 313 312 310 313 316 320 320 321 320 321 321 318
305 305 306 306 306 307 307 307 308 305 302 297 294 286 290 291 293 294 297 299 302 304 305 305 305 304 306 301 301 296 300 300 293 290 292 301 307 309 308 310 311 308 309 312 311 314 318 318 319 320 317 320 319 316
305 306 306 306 307 307 307 307 307 305 301 294 295 287 292 297 300 302 302 302 305 304 302 304 305 305 302 300 301 298 295 293 295 296 301 306 310 311 312 313 314 314 313 314 316 316 318 318 317 316 316 317 316 318
306 306 305 307 307 308 307 307 305 306 301 297 295 293 297 297 300 302 303 303 308 307 309 307 301 299 298 300 297 296 294 293 298 305 308 309 309 312 311 313 314 316 316 316 316 317 317 315 315 315 316 316 315 316
306 304 307 307 308 307 307 306 304 298 296 296 295 300 299 299 300 301 302 304 310 307 301 302 297 297 302 297 297 300 297 301 304 310 312 312 312 310 312 314 316 316 316 315 317 317 316 316 317 314 312 311 311 311
304 307 307 307 306 306 305 304 300 298 294 297 296 302 305 304 301 302 303 309 309 306 305 301 304 298 292 293 297 299 302 311 312 311 310 312 314 314 315 314 315 317 317 317 318 317 318 315 314 313 314 313 312 310
307 307 307 307 307 305 299 299 301 294 296 300 301 303 302 302 305 306 307 308 308 311 307 303 300 301 302 304 306 310 311 311 310 310 311 314 315 314 315 317 317 316 316 316 316 316 316 314 313 313 311 310 308 308
307 307 308 307 308 301 296 297 304 297 295 299 300 299 301 300 305 305 308 310 311 309 304 302 303 306 307 310 314 314 313 315 312 309 309 311 312 313 315 317 316 318 316 316 316 312 315 313 313 312 312 310 308 306
306 306 306 307 303 301 298 298 298 299 299 297 301 301 300 306 305 306 307 313 308 306 302 306 307 310 316 318 319 317 316 315 312 311 310 311 315 315 314 315 318 316 315 315 314 313 313 314 313 313 313 313 311 309
305 307 304 304 298 300 299 302 299 303 299 299 300 303 302 302 303 305 311 306 305 306 309 307 308 312 314 314 314 316 316 315 313 312 306 310 311 312 312 314 313 311 313 313 313 312 314 316 314 315 314 308 307 306
305 306 304 302 297 296 296 304 298 300 295 298 302 299 301 302 307 311 305 308 308 314 315 312 314 317 316 318 317 318 318 315 312 311 309 309 310 311 310 310 311 310 311 313 312 311 312 306 309 309 309 308 306 304
308 302 298 296 296 292 299 296 300 298 300 299 299 298 301 304 309 304 301 306 312 313 314 313 315 315 316 316 314 315 316 315 312 314 315 310 308 309 310 310 311 311 311 313 312 311 311 311 307 309 308 308 307 306
293 291 292 287 296 294 294 299 302 302 300 302 301 301 305 310 302 300 300 304 308 311 312 312 314 314 311 313 317 315 320 315 311 309 313 314 312 310 309 309 310 311 312 310 309 309 309 309 307 305 303 303 303 303
285 293 290 295 298 296 302 300 302 302 303 302 303 307 309 304 299 298 302 306 308 311 312 312 311 312 312 315 313 312 315 316 314 310 312 311 310 309 308 307 306 307 311 311 310 308 308 307 306 305 301 300 296 302
292 297 299 304 307 309 306 306 307 304 301 301 303 304 303 297 298 305 315 312 310 315 319 318 315 315 314 314 316 316 317 318 317 316 315 314 313 312 308 306 306 308 309 308 308 307 307 307 306 306 306 306 305 304
304 307 302 307 305 308 303 303 302 302 303 308 307 300 299 300 301 313 315 320 320 319 319 318 321 317 316 314 310 311 313 315 317 318 314 312 313 313 312 310 309 300 307 308 307 306 306 306 305 305 306 305 305 306
305 308 308 304 306 306 305 304 305 307 310 308 304 302 304 314 315 316 318 318 318 317 314 313 313 315 313 313 312 310 309 309 307 308 311 306 307 308 312 309 307 309 308 305 296 302 306 305 305 304 306 306 306 307
306 309 305 305 302 301 306 310 309 311 312 312 312 311 310 311 315 319 317 316 314 313 314 312 312 310 308 308 308 308 309 309 308 305 303 304 305 308 309 309 310 310 310 308 304 304 295 300 301 303 304 304 306 304
311 309 306 305 303 306 308 311 312 313 311 310 311 308 307 311 313 315 315 316 315 314 312 311 310 310 308 307 307 306 305 308 309 309 307 308 308 309 309 310 310 310 309 309 308 306 305 305 306 306 307 306 306 303
307 305 304 302 305 309 313 310 309 308 309 309 306 308 309 308 306 312 316 315 312 313 307 310 310 309 311 311 310 308 303 306 307 308 308 307 307 309 307 308 309 310 310 308 308 308 307 307 306 306 305 306 306 306
308 308 308 306 306 305 307 307 306 306 307 306 306 308 308 307 305 313 318 318 315 313 312 312 312 313 315 314 312 309 305 310 305 297 296 295 295 298 303 307 308 309 309 308 308 308 307 309 307 308 307 307 306 305
Wind_Speed
15 14 14 14 13 14 14 13 12 11 11 11 10 10 11 12 11 6 8 10 4 4 11 10 12 11 10 6 5 9 7 6 5 0 2 5 4 6 7 6 5 6 5 5 3 4 10 4 5 2 3 2 5 5
13 13 13 11 12 12 12 11 11 11 11 11 10 10 10 10 10 8 5 10 10 3 8 17 17 15 13 8 5 5 4 5 4 5 5 5 4 4 6 8 6 4 4 4 9 9 7 5 7 8 5 3 2 4
7 8 10 11 11 10 10 10 10 10 11 10 10 10 9 8 8 5 5 6 5 6 10 8 9 14 14 14 10 2 3 3 5 1 4 3 5 3 3 6 8 10 6 4 5 3 5 7 6 9 9 8 8 6
10 10 10 9 8 9 8 9 9 10 10 9 9 10 8 8 7 6 5 7 6 5 5 6 6 7 17 9 16 11 8 6 3 2 3 4 3 3 5 6 9 5 10 9 4 6 5 3 4 3 10 6 5 6
12 9 9 8 7 8 8 8 8 8 8 8 9 8 7 7 7 7 7 6 7 4 5 10 20 14 11 10 6 6 5 5 3 3 4 6 3 4 8 8 14 5 6 6 5 5 3 7 3 14 5 6 2 2
11 11 9 9 8 8 8 9 8 7 7 8 9 9 7 5 5 5 3 4 6 6 3 5 6 8 11 9 12 7 4 3 4 3 4 5 8 6 6 11 14 13 13 10 5 13 11 7 9 9 6 5 5 5
11 10 10 9 9 9 10 9 9 7 7 8 9 8 5 3 4 4 4 4 8 5 3 5 5 4 9 7 5 4 9 6 6 6 7 9 10 7 10 19 9 10 14 15 13 8 1 10 9 9 7 8 8 7
10 10 9 7 8 8 11 7 5 7 5 4 4 3 2 2 7 6 7 12 3 4 2 4 6 5 8 5 6 7 8 7 7 8 5 8 10 8 15 16 13 14 16 17 14 10 7 15 10 7 5 4 5 6
9 9 8 7 7 8 7 4 4 6 5 4 3 2 3 3 4 3 11 9 3 2 3 4 6 4 3 4 3 1 2 4 4 10 11 8 10 10 14 13 14 19 18 18 8 8 14 3 9 10 5 5 8 6
7 7 7 7 7 6 4 4 5 7 6 5 3 3 3 3 11 9 2 4 3 4 4 5 5 8 8 4 3 2 1 3 4 5 6 9 15 18 17 18 16 17 4 4 4 5 6 8 13 9 10 7 10 9
8 8 8 8 7 6 4 4 8 9 4 3 3 3 1 3 3 2 3 5 5 5 6 5 9 9 5 7 4 2 2 2 4 2 4 5 12 11 16 17 12 8 9 5 2 4 9 9 9 7 9 5 5 5
8 7 7 8 7 6 5 6 11 6 1 3 3 3 1 2 4 4 4 4 5 5 6 6 6 9 5 4 1 2 2 2 7 3 4 5 3 6 12 11 11 4 7 5 5 5 19 14 8 5 7 6 2 4
2 4 5 7 7 6 5 6 11 8 7 3 3 4 3 3 4 6 7 5 5 4 3 2 3 4 2 2 2 3 4 5 4 3 4 4 9 9 1 4 4 2 5 6 7 7 20 5 12 10 6 6 8 11
6 7 7 7 8 7 6 6 9 2 1 3 2 2 4 5 7 4 4 4 4 4 6 4 0 1 2 1 3 4 2 3 3 3 4 5 7 4 4 4 3 3 9 9 11 12 9 11 11 10 11 12 10 9
7 8 7 10 11 10 9 8 9 4 2 3 3 5 8 8 5 4 4 5 1 3 1 3 2 3 3 4 3 4 4 4 4 2 3 3 4 4 4 5 6 6 9 10 6 12 11 10 8 9 7 9 11 13
7 4 5 8 11 12 11 9 4 2 3 3 5 6 8 7 3 4 2 3 3 3 3 3 3 4 6 4 5 6 3 4 3 3 2 1 5 4 5 5 6 5 6 10 9 10 11 9 9 9 9 11 10 10
8 2 11 11 12 13 12 5 4 5 4 5 6 8 10 7 5 4 5 5 2 2 1 2 4 1 2 2 1 2 5 4 4 3 3 4 4 3 5 3 1 4 8 7 6 9 11 8 8 10 12 11 10 10
1 8 13 13 10 7 4 1 3 4 7 7 8 3 2 3 5 5 6 2 2 2 2 1 2 3 1 2 2 6 6 1 3 5 4 2 5 6 6 4 7 8 9 9 8 9 10 10 10 7 9 7 8 8
3 9 12 13 1 1 4 3 4 4 5 6 6 5 4 6 6 6 6 5 5 1 2 3 6 1 2 1 1 4 4 3 5 5 5 6 7 5 6 8 9 10 11 11 9 7 7 7 5 6 5 6 5 3
7 12 9 4 4 2 1 2 2 4 4 2 2 3 3 5 6 5 5 5 2 2 3 2 3 2 2 1 2 4 4 4 4 6 4 2 2 4 6 6 5 7 7 7 6 7 6 7 7 5 4 5 4 3
7 4 2 2 2 2 3 3 4 3 3 3 2 2 4 3 3 2 2 1 1 2 2 3 4 3 4 4 4 4 5 4 3 3 3 2 1 2 2 2 2 4 4 4 4 3 4 4 4 4 4 2 4 4
2 14 3 5 3 4 5 5 3 1 2 3 2 2 3 2 1 2 2 1 2 1 2 1 4 2 6 6 5 6 5 3 0 2 5 4 4 1 3 2 2 2 4 5 4 5 4 3 4 3 4 4 6 4
8 5 2 4 4 3 3 2 3 3 3 2 2 2 2 1 2 3 2 2 1 0 2 2 1 4 5 4 4 3 3 3 1 2 3 3 4 4 4 5 5 5 3 3 4 4 3 3 7 5 5 4 5 3
2 2 3 3 2 3 2 3 3 2 2 3 2 2 1 3 4 1 4 3 3 3 4 4 4 3 4 6 5 4 5 3 3 4 3 4 4 4 5 4 4 4 4 4 4 4 4 4 4 5 3 0 4 5
2 3 2 5 3 3 4 4 4 4 4 4 4 2 1 2 3 3 2 3 5 5 5 4 5 4 3 1 2 4 5 5 5 5 5 4 4 3 4 4 5 5 3 4 4 5 5 5 6 6 6 5 7 7
2 4 4 4 3 5 5 3 2 2 2 3 3 3 1 4 5 5 3 3 3 3 4 6 4 0 3 1 1 3 3 4 5 6 5 7 7 7 6 6 7 7 5 4 4 5 5 5 3 8 6 4 2 4
6 7 7 5 5 4 4 3 5 5 6 5 3 4 4 4 5 2 0 4 3 3 3 1 4 4 4 5 5 5 4 2 1 1 3 5 5 6 7 5 5 3 6 8 8 9 8 6 5 5 3 3 5 4
4 3 5 3 4 4 12 7 6 5 4 4 3 4 3 3 2 1 2 3 4 5 6 4 4 4 1 4 5 4 1 1 2 1 3 6 4 4 7 5 4 8 4 5 6 5 5 5 5 6 4 4 5 4
4 5 4 10 7 5 5 5 6 4 3 7 8 6 3 1 3 3 3 4 5 3 4 4 2 3 4 4 5 6 6 8 11 9 2 5 4 4 4 6 5 5 4 4 7 6 4 4 4 4 5 4 3 2
7 3 7 13 11 6 4 2 2 6 6 6 6 7 4 2 2 4 4 3 1 2 3 5 5 6 6 5 6 7 6 6 7 7 7 5 6 5 5 6 5 5 3 5 6 4 0 2 4 3 4 5 3 3
0 3 8 8 4 2 3 4 4 6 6 3 6 6 5 4 3 2 4 6 5 3 4 4 7 6 6 7 6 5 7 7 9 10 10 6 7 5 6 6 4 4 3 3 2 2 5 1 4 2 2 4 3 1
3 3 1 2 2 1 3 2 2 3 4 4 6 3 5 4 5 2 4 5 6 4 2 5 7 7 6 4 6 5 9 5 4 4 6 5 6 7 7 7 5 4 4 4 4 3 4 3 4 4 4 5 4 4
3 3 3 4 3 1 2 2 2 2 1 4 7 3 6 6 4 3 3 3 4 5 6 6 6 5 3 4 2 3 4 5 7 8 5 3 3 2 4 4 4 5 5 5 7 4 6 1 1 3 4 2 4 5
Wind_Direction
261 262 264 268 269 272 275 277 277 277 286 295 301 311 324 329 330 340 290 290 294 290 299 304 350 335 344 350 358 343 333 17 322 324 239 226 256 258 282 262 246 236 194 211 168 239 264 25 30 101 198 75 67 70
258 256 260 264 267 267 268 265 262 263 273 284 290 297 310 319 321 342 285 332 333 273 292 311 286 267 269 278 313 327 305 316 350 2 14 348 341 323 282 283 301 296 224 226 194 222 190 173 158 170 185 189 218 169
295 283 274 272 270 265 262 261 256 253 260 269 277 284 292 306 314 321 306 309 308 275 280 252 247 240 225 229 234 230 305 319 7 12 298 259 267 341 308 295 345 337 2 354 4 326 200 195 182 177 195 201 188 140
277 283 287 279 284 285 279 270 255 248 253 253 265 272 275 290 295 301 295 305 295 301 283 286 21 328 324 278 203 213 233 288 292 334 280 276 293 308 298 308 299 280 335 293 255 302 352 114 2 265 209 164 139 151
274 272 283 282 283 289 295 284 256 246 244 249 254 260 264 273 284 284 271 271 274 280 308 310 312 278 256 280 304 271 218 207 225 260 239 254 254 299 276 285 270 308 285 332 288 223 176 256 248 2 32 80 61 167
267 266 265 273 279 293 296 284 275 264 242 242 245 249 251 265 291 292 254 184 17 0 268 293 329 269 256 227 224 239 259 234 221 244 263 243 245 261 273 263 265 274 292 295 305 297 228 252 238 160 258 308 265 264
254 265 256 260 268 280 294 276 270 259 255 237 232 231 243 267 263 266 314 316 318 324 265 288 270 249 216 222 226 211 206 217 228 250 242 259 261 270 270 263 290 281 286 294 298 311 215 224 256 207 193 216 233 221
245 251 253 250 263 281 290 258 249 230 196 180 189 204 239 259 272 267 242 236 194 269 279 268 264 263 176 203 218 220 221 219 213 224 217 247 260 242 246 266 289 291 293 288 292 332 293 285 261 243 240 239 262 250
236 233 248 236 255 272 280 238 234 181 167 160 173 202 236 230 234 263 103 110 182 319 284 263 286 277 334 226 255 320 147 248 244 226 227 224 240 230 247 256 266 264 257 269 307 350 325 324 337 296 217 254 250 276
232 222 237 223 239 259 282 249 204 161 154 159 198 213 239 215 124 132 176 160 188 220 221 254 270 270 343 323 294 87 13 315 298 263 300 240 243 241 242 233 243 254 195 41 354 328 23 325 320 323 327 323 126 113
223 230 236 208 219 229 262 244 162 132 140 211 218 229 353 174 205 215 236 199 187 218 214 236 218 244 259 249 271 46 35 311 268 290 285 241 255 268 264 232 231 236 179 223 153 267 296 252 251 251 261 354 101 134
221 232 251 193 211 219 253 208 165 202 157 322 288 250 12 230 210 238 207 212 213 237 207 210 225 197 227 206 167 136 224 179 255 357 252 256 140 34 18 21 351 97 120 62 346 306 291 317 284 33 40 61 160 358
195 206 199 196 215 214 230 183 184 234 359 292 229 224 198 192 209 227 206 196 215 224 45 33 22 17 305 50 96 173 222 234 354 272 287 304 311 310 88 271 77 105 137 127 268 217 245 73 50 49 26 21 69 69
229 229 220 214 212 214 209 187 195 196 291 270 252 249 233 211 231 213 337 352 351 5 336 347 319 92 271 200 211 233 216 163 233 249 245 288 6 98 203 260 299 254 276 257 243 258 63 54 55 53 45 38 62 77
243 243 226 209 214 211 206 195 178 192 266 245 257 241 229 238 312 317 104 273 290 45 295 297 235 211 212 247 208 209 232 237 237 275 257 321 328 254 351 357 68 186 211 214 128 71 82 74 71 73 64 70 81 84
223 160 217 188 196 193 165 150 167 233 255 248 224 253 262 285 304 324 350 312 31 315 246 215 237 224 207 215 205 206 239 222 264 260 284 172 300 28 43 21 11 45 75 90 92 101 101 93 84 77 69 63 57 72
164 270 144 138 133 140 163 163 176 215 247 243 239 224 257 283 311 325 334 322 292 284 274 289 259 305 338 250 341 31 340 309 269 344 19 51 47 32 347 356 74 108 126 116 137 120 116 115 100 88 76 64 63 63
284 140 133 131 136 131 160 299 260 237 239 249 258 318 -0 274 296 288 279 285 341 333 318 255 197 221 232 262 177 179 243 153 66 57 30 86 47 20 349 32 78 94 96 101 97 104 96 87 83 76 96 107 92 87
79 134 147 168 75 197 172 207 221 272 274 322 317 343 323 305 281 279 276 281 261 195 283 347 245 241 77 8 333 94 100 87 86 60 25 44 53 49 73 70 75 75 81 85 88 82 88 90 78 88 91 96 97 63
112 110 112 73 19 7 311 244 324 272 276 311 314 280 262 260 281 284 281 280 254 218 228 255 33 345 50 332 77 93 99 98 105 103 76 37 21 93 64 71 73 87 86 87 85 96 105 106 110 128 133 125 114 114
144 141 156 10 30 224 271 254 210 232 255 244 261 251 268 250 231 257 296 281 281 17 37 12 340 319 74 66 66 87 92 108 116 118 153 117 239 53 352 15 83 124 122 117 93 85 91 117 134 132 155 215 141 140
74 158 165 165 241 230 230 203 254 260 221 250 266 237 282 294 306 245 252 221 105 90 84 304 298 18 81 78 89 94 117 113 82 324 312 65 113 203 272 277 135 128 109 137 140 129 139 150 146 154 175 113 83 58
156 211 202 197 237 246 275 337 257 197 234 229 220 258 261 306 357 10 64 57 55 240 118 207 306 63 97 95 70 49 98 99 32 353 348 54 39 39 46 38 35 57 93 75 77 104 89 58 133 104 80 93 129 129
23 357 284 313 291 265 262 235 221 249 241 211 207 61 316 224 172 120 57 24 336 352 112 116 80 60 38 51 49 26 10 350 303 268 251 120 93 41 46 54 80 74 48 50 89 79 90 90 88 101 101 313 53 115
16 305 322 280 244 265 265 254 223 218 103 206 160 170 176 210 89 79 46 356 14 46 69 86 76 40 69 67 17 359 334 342 329 37 16 56 110 116 94 79 53 29 70 76 58 68 67 76 71 74 55 37 28 12
239 225 224 232 222 213 207 238 231 259 74 102 57 128 127 49 50 56 48 348 349 60 95 109 107 11 354 345 321 345 323 322 19 34 24 51 41 38 48 73 70 24 2 45 61 73 77 88 67 118 121 121 94 319
189 212 225 226 268 252 250 244 41 46 46 39 7 12 65 59 62 51 315 140 252 241 230 207 139 183 205 227 240 265 270 235 117 275 58 64 63 73 74 67 54 13 29 29 39 38 29 35 43 38 49 123 128 97
268 299 339 2 133 47 47 48 36 28 22 342 55 45 60 47 80 208 278 258 182 191 207 193 214 209 49 359 27 52 25 339 194 279 84 105 103 85 113 100 102 97 82 64 73 47 26 21 15 351 22 33 60 56
287 317 58 62 52 50 38 30 36 9 350 61 74 78 89 108 171 210 241 261 274 222 201 203 238 172 145 111 70 54 24 11 9 6 8 105 88 52 102 148 162 170 149 113 77 91 74 78 32 17 344 329 287 58
11 26 74 70 63 56 36 73 92 79 87 102 105 114 103 99 219 258 281 264 110 82 56 71 49 28 25 33 83 86 61 42 29 23 3 45 55 32 26 17 19 47 127 148 154 161 296 272 225 255 253 279 69 43
67 72 83 75 104 177 118 112 124 144 127 95 122 127 139 159 126 48 12 359 346 74 70 84 84 59 55 26 28 32 83 62 34 26 8 8 59 29 15 351 18 55 34 360 317 220 202 139 347 293 53 48 57 270
56 60 140 73 81 319 269 208 219 179 163 147 136 167 159 141 111 76 17 2 358 71 60 42 69 64 37 103 108 96 77 68 46 27 23 10 15 12 354 338 27 12 2 318 322 352 43 44 28 350 23 355 345 343
320 38 11 8 330 289 96 340 253 293 110 114 143 147 107 96 56 48 98 85 28 14 57 56 65 106 116 83 83 128 159 150 137 125 123 129 150 241 291 355 355 337 352 324 313 14 343 343 105 285 276 324 18 22